星链-1058 (STARLINK-1058 )

导读

STARLINK-1058是美国太空探索技术公司SpaceX星链卫星互联网项目中的一颗卫星,于2019年11月11日发射入轨。星链计划旨在构建全球卫星互联网星座,该星属于星链早期部署阶段的卫星,承担着为全球偏远地区提供网络接入服务等相关测试与组网任务。

基本信息
目录编号:
44763
目录名称:
STARLINK-1058
国际标识:
2019-074BC
轨道中心:
EARTH
卫星名称:
星链-1058
卫星全名:
星链-1058 (STARLINK-1058 )
卫星状态:
已陨落 最后检测时间 2025-04-04
发射日期:
2019-11-11 UTC
国别 :
美国 (US)
星等 :
--
轨道信息
数据来源 国际轨道数据
星历时间: 2025-04-04T18:08:30+0800
轨道信息已过期479天
半长轴: 6530.703km
偏心率: 0.0007421
轨道倾角: 53.021°
近地点辐角 291.337°
升交点赤经 244.789°
平近点角 116.486°
近地点: 147.721km
远地点: 157.415km
周期: 87.539分钟
每日圈数: 16.449886
详细信息
固有亮度:
5
最大亮度:
2.5
卫星平台:
Starlink V1.0
覆盖范围:
全球
运营商:
太空探索技术公司
运营商所在国:
美国
制造商(研发单位):
太空探索技术公司
制造商所在国:
美国
使用方式:
暂无
卫星简介
星链(Starlink)计划是由太空探索技术公司(SpaceX)提出的一个巨型低轨卫星互联网星座项目,计划在2019年至2024年间在太空搭建由约1.2万颗卫星组成的“星链”网络,其中1584颗将部署在地球上空550千米处的近地轨道,并从2020年开始工作。该卫星仍在工作。